Location: Laas
(43.4693°N, 0.3073°E)
Time: 13:57:39
(UTC+00:00)

BREEZE-M R/B - Pass Details

Date: 25 October 2020
Orbit: 283 x 23020 km, 49.2° (Epoch: 24 November)

Event Time Altitude Azimuth Distance (km) Brightness Sun altitude
Rises 18:25:51 0° 277° (W) 6,885 10.6 -16.3°
Reaches altitude 10° 18:32:41 10° 284° (WNW) 3,788 8.7 -17.5°
Maximum altitude 18:39:19 38° 353° (N) 895 4.4 -18.7°
Enters shadow 18:40:10 32° 30° (NNE) 883 4.1 -18.9°
